Regional Weather Roundup
Issued by NWS Kansas City/Pleasant Hill, MO

Home | Current Version | Previous Version | Text Only | Print | Product List | Glossary On
Versions: 1 2 3 4 5 6 7 8 9 10 11 12 13 14 15 16 17 18 19 20 21 22 23 24 25 26 27 28 29 30 31 32 33 34 35 36 37 38 39 40 41 42 43 44 45 46 47 48 49 50
000
ASUS43 KEAX 230515
RWREAX

WEATHER ROUNDUP FOR EASTERN KANSAS AND NORTHWEST MISSOURI
NATIONAL WEATHER SERVICE KANSAS CITY/PLEASANT HILL MO
1200 AM CDT FRI OCT 23 2020

KSZ040-057-103>105-MOZ028-029-037-043-230600-
...KANSAS CITY METROPOLITAN AREA...

CITY           SKY/WX    TMP DP  RH WIND       PRES   REMARKS
K.C. INTL      LGT RAIN  46  42  86 N13G24    29.97R
K.C. DOWNTOWN  CLOUDY    49  42  77 NW12      29.97R
LEES SUMMIT    CLOUDY    50  46  86 N14       29.95R
OLATHE - IXD   CLOUDY    47  42  83 NW14      29.97R
OLATHE - OJC   CLOUDY    47  45  93 N13G24    29.95R
LAWRENCE       CLOUDY    46  41  82 N17       29.99R

$$

MOZ001>008-011>017-020>025-030>033-038>040-044>046-053-054-230600-
...NORTHERN AND CENTRAL MISSOURI...

CITY           SKY/WX    TMP DP  RH WIND       PRES   REMARKS
ST. JOSEPH     CLOUDY    42  38  85 N17       30.01R WCI  34
MOSBY          CLOUDY    48  43  81 NW15G22   29.96
HARRISONVILLE  CLOUDY    57  50  77 NW13G20   29.94R
WHITEMAN AFB   CLEAR     67  62  83 S9        29.84R
CLINTON        PTCLDY    72  61  68 S9        29.88F
SEDALIA        CLEAR     72  60  66 S14       29.89S
MARSHALL       CLEAR     64  55  72 NW18      29.91R
CHILLICOTHE      N/A     50  44  80 NW7       29.95R
MOBERLY        CLEAR     72  57  60 S14       29.87R
KIRKSVILLE     MOCLDY    53  49  86 NW14      29.89R

$$

MOZ041-047>049-056>058-063>065-088>090-097-230600-
...EASTERN AND SOUTHERN MISSOURI...

CITY           SKY/WX    TMP DP  RH WIND       PRES   REMARKS
ST. LOUIS INTL CLEAR     71  62  73 S8        29.92F
SPIRIT OF STL  CLEAR     72  62  71 S7        29.90F
COLUMBIA       CLEAR     70  61  73 S10       29.90S
JEFFERSON CITY CLEAR     71  60  68 SE6       29.90S
MEXICO         CLEAR     68  61  77 S12       29.89S
HANNIBAL       CLEAR     70  59  68 S13       29.87S
ROLLA          CLEAR     69  62  78 S12       29.94S
LEBANON        CLEAR     68  61  77 S8        29.97R
OSAGE BEACH      N/A     69  63  81 S7        29.94R
SPRINGFIELD    CLEAR     65  60  84 S6        29.96R
BRANSON        CLEAR     66  63  88 SE6       29.97R
JOPLIN         PTCLDY    68  60  75 S6          N/A
WEST PLAINS    CLEAR     70  64  81 S9        29.99F
SIKESTON       CLEAR     70  64  83 S5        29.99S

$$

IAZ060-094-KSZ022-034>040-054-083-096-NEZ052-066-093-230600-
...KANSAS...SOUTHEAST NEBRASKA AND IOWA...

CITY           SKY/WX    TMP DP  RH WIND       PRES   REMARKS
TOPEKA         CLOUDY    45  39  79 N13       30.00R
MANHATTAN      LGT RAIN  41  36  82 N7        30.06R
EMPORIA        CLOUDY    46  40  79 N14G22    30.00R
OTTAWA         CLOUDY    48  45  87 NW13      29.96R
CHANUTE        CLOUDY    55  50  83 N17G23    29.93S
SALINA         CLOUDY    39  37  92 N21G30    30.10R WCI  29
WICHITA        CLOUDY    45  38  76 N18G28    30.00R
OMAHA          CLOUDY    37  34  89 N16       30.10R WCI  28
LINCOLN        CLOUDY    36  32  85 N21G31    30.13R WCI  25
FALLS CITY     LGT RAIN  39  37  92 N14G23    30.02F WCI  31
LAMONI         TSTM      38  36  92 N20G25    29.95F FOG     WCI  28
DES MOINES     RAIN      37  35  92 N15G22    29.97F FOG     WCI  28

$$





USA.gov is the U.S. government's official web portal to all federal, state and local government web resources and services.